Location: Bon Acre
(42.6442°N, 73.5758°W)
Time: 01:56:42
(UTC+00:00)

Cosmos 2219 - Pass Details

Date: 14 December 2025
Orbit: 831 x 860 km, 71.1° (Epoch: 12 January)

Event Time Altitude Azimuth Distance (km) Brightness Sun altitude
Rises 22:30:39 0° 338° (NNW) 3,437 6.4 -12.3°
Reaches altitude 10° 22:33:10 10° 343° (NNW) 2,500 5.6 -12.7°
Maximum altitude 22:38:49 56° 62° (ENE) 1,015 3.3 -13.7°
Drops below altitude 10° 22:44:27 10° 140° (SE) 2,490 5.4 -14.7°
Sets 22:46:57 0° 145° (SE) 3,422 6.2 -15.1°
